[[{"header":{"parameterUnit":"m.s-1","parameterCategory":1,"la1":30.2991,"la2":30.254,"lo1":-89.0895,"lo2":-89.0444,"dy":0.0017,"dx":0.0017,"nx":28,"ny":28,"refTime":"2023-08-25T21:00:00:Z","depth":0,"parameterNumber":2,"parameterNumberName":"U-component_of_WINDS"},"data":[0,0,0,0,0,0,0,0,0,0,0,0,0,0,0,0,0,0,0,0,0,0,0,0,0,0,0,0,0,0,0,0,0,0,0,0,0,0,0,0,0,0,0,0,0,0,0,0,0,0,0,0,0,0,0,0,0,0,-0.4056,-0.4053,0,-0.38,-0.3797,-0.3794,-0.3644,-0.3643,-0.3642,-0.3642,-0.3383,-0.3377,-0.3371,0,0,0,0,0,0,0,0,0,0,0,0,0,-0.4428,-0.4422,-0.4056,-0.4053,-0.405,-0.38,-0.3797,-0.3793,-0.3644,-0.3643,-0.3642,-0.3642,-0.3385,-0.3378,-0.337,0,0,0,0,0,0,0,0,0,0,0,0,0,-0.4229,-0.442,-0.4057,-0.3945,-0.3933,-0.3801,-0.3796,-0.3792,-0.3644,-0.3643,-0.3642,-0.3641,-0.3388,-0.3378,-0.3369,-0.333,0,0,-0.334,-0.3336,0,0,0,0,0,0,0,0,-0.424,-0.4215,-0.3965,-0.3953,-0.3938,-0.3753,-0.3833,-0.3637,-0.3644,-0.3754,-0.3642,-0.3641,-0.3507,-0.3488,-0.3442,-0.3318,-0.3306,-0.3339,-0.3334,-0.333,-0.3327,0,0,0,0,0,0,0,-0.4254,-0.4225,-0.3955,-0.3961,-0.3945,-0.3912,-0.3882,-0.3795,-0.3639,-0.3744,-0.3732,-0.3704,-0.35,-0.3451,-0.3435,-0.3303,-0.334,-0.3331,-0.3325,-0.3322,-0.3144,-0.3145,0,0,0,0,0,0,-0.4285,-0.4238,-0.3963,-0.3947,-0.409,-0.3906,-0.3873,-0.3813,-0.3639,-0.3612,-0.3705,-0.3698,-0.3468,-0.3446,-0.3425,-0.3371,-0.333,-0.3321,-0.3315,-0.3143,-0.3144,-0.3145,0,0,0,0,0,0,-0.4293,-0.4262,-0.3973,-0.4089,-0.405,-0.39,-0.3835,-0.3809,-0.3759,-0.361,-0.3582,-0.3683,-0.3466,-0.3438,-0.3356,-0.336,-0.3317,-0.3308,-0.3142,-0.3144,-0.3145,-0.3262,0,0,0,0,0,0,-0.4305,-0.4265,-0.4245,-0.409,-0.4044,-0.3905,-0.3835,-0.3804,-0.3743,-0.3732,-0.3582,-0.3556,-0.3463,-0.3371,-0.3347,-0.3346,-0.3301,-0.3141,-0.3143,-0.3145,-0.3256,-0.3267,-0.3276,0,0,0,0,0,-0.4318,-0.4286,-0.4244,-0.4212,-0.4015,-0.3905,-0.3879,-0.3771,-0.3744,-0.3725,-0.3631,-0.3561,-0.3366,-0.3364,-0.3335,-0.3332,-0.314,-0.3142,-0.3144,-0.3252,-0.3265,-0.3275,0,0,0,0,0,0,-0.4442,-0.4263,-0.4215,-0.4131,-0.4035,-0.388,-0.385,-0.3787,-0.3696,-0.3689,-0.3562,-0.353,-0.3462,-0.3389,-0.3391,-0.3291,-0.3246,-0.3243,-0.3338,-0.3348,-0.3358,-0.3374,-0.3293,0,0,0,0,0,-0.4461,-0.4385,-0.4233,-0.4175,-0.4129,-0.4,-0.3948,-0.3875,-0.377,-0.3728,-0.3627,-0.353,-0.3448,-0.3395,-0.331,-0.3249,-0.3217,-0.3234,-0.3244,-0.3252,-0.3249,-0.3218,-0.3225,-0.3153,-0.3153,-0.3152,0,0,-0.4496,-0.439,-0.4348,-0.4197,-0.4113,-0.4041,-0.3965,-0.3889,-0.3836,-0.3716,-0.3632,-0.3558,-0.3443,-0.3373,-0.3337,-0.331,-0.3264,-0.3255,-0.3263,-0.3254,-0.3221,-0.3228,-0.3234,-0.3154,-0.3154,-0.3154,0,0,-0.4523,-0.4434,-0.4377,-0.4299,-0.4175,-0.4091,-0.408,-0.3937,-0.3882,-0.3798,-0.371,-0.3648,-0.3505,-0.3429,-0.3371,-0.3387,-0.3321,-0.3364,-0.341,-0.3382,-0.3388,-0.3392,-0.34,-0.3404,-0.3363,-0.3363,-0.3363,0,-0.4581,-0.4465,-0.4357,-0.4289,-0.4228,-0.4122,-0.4068,-0.3997,-0.3853,-0.3815,-0.3789,-0.3616,-0.353,-0.3444,-0.345,-0.3406,-0.3392,-0.3376,-0.3396,-0.3399,-0.3402,-0.3407,-0.341,-0.3369,-0.3368,-0.3367,-0.3367,0,-0.4547,-0.447,-0.444,-0.4306,-0.4244,-0.4183,-0.407,-0.4021,-0.3958,-0.388,-0.3801,-0.3697,-0.3592,-0.3568,-0.3504,-0.3476,-0.3464,-0.342,-0.3371,-0.3416,-0.342,-0.3421,-0.3377,-0.3375,-0.3373,-0.3372,0,0,-0.4631,-0.4449,-0.4439,-0.4381,-0.4244,-0.4184,-0.4125,-0.4024,-0.3986,-0.3895,-0.3843,-0.3733,-0.3694,-0.363,-0.3558,-0.3534,-0.3558,-0.3492,-0.3488,-0.3508,-0.3526,-0.3558,-0.3562,-0.3518,-0.3518,-0.3518,-0.3536,0,-0.4637,-0.452,-0.4427,-0.4347,-0.4278,-0.4184,-0.4133,-0.4047,-0.3976,-0.3911,-0.3834,-0.3758,-0.3711,-0.3672,-0.3645,-0.3561,-0.356,-0.3559,-0.347,-0.3468,-0.3497,-0.3563,-0.3594,-0.3616,-0.3537,-0.3537,-0.3537,0,-0.4624,-0.454,-0.4454,-0.4334,-0.4301,-0.4256,-0.4162,-0.41,-0.4005,-0.3956,-0.3891,-0.382,-0.3759,-0.3724,-0.364,-0.3642,-0.3603,-0.3559,-0.3557,-0.354,-0.3501,-0.3547,-0.3619,-0.3622,-0.3537,-0.3537,-0.3537,0,-0.4697,-0.4562,-0.4495,-0.4448,-0.4306,-0.4278,-0.4218,-0.4122,-0.4071,-0.3991,-0.3958,-0.3873,-0.3825,-0.3764,-0.3674,-0.3657,-0.3603,-0.3558,-0.3562,-0.3564,-0.3548,-0.3549,-0.3613,-0.353,-0.353,-0.353,-0.353,0,-0.471,-0.4661,-0.4526,-0.4484,-0.443,-0.433,-0.428,-0.4212,-0.413,-0.4077,-0.3994,-0.3947,-0.3833,-0.3774,-0.3706,-0.365,-0.3629,-0.359,-0.3571,-0.3595,-0.36,-0.3563,-0.3558,-0.353,-0.353,-0.353,-0.353,0,-0.4776,-0.4684,-0.4605,-0.4482,-0.445,-0.4416,-0.4311,-0.427,-0.4201,-0.4136,-0.4115,-0.4005,-0.3933,-0.384,-0.3738,-0.3692,-0.3645,-0.3617,-0.3676,-0.3664,-0.3673,-0.3673,-0.3711,-0.3712,-0.3632,-0.3633,-0.3634,0,-0.4789,-0.475,-0.4625,-0.4584,-0.4528,-0.4462,-0.4412,-0.4317,-0.4269,-0.4165,-0.4138,-0.4061,-0.3992,-0.3883,-0.3796,-0.372,-0.3689,-0.3709,-0.3676,-0.3704,-0.3689,-0.3691,-0.3688,-0.3715,-0.3716,-0.3717,-0.3718,0,-0.4821,-0.4781,-0.4711,-0.4629,-0.4573,-0.4503,-0.4429,-0.4402,-0.4293,-0.4244,-0.417,-0.4118,-0.4019,-0.3944,-0.3859,-0.3801,-0.3743,-0.3731,-0.3727,-0.3748,-0.3783,-0.3765,-0.3695,-0.3728,-0.3727,-0.3726,-0.3726,-0.3725,-0.486,-0.4824,-0.4733,-0.4661,-0.4598,-0.4535,-0.4492,-0.4421,-0.4357,-0.4268,-0.4218,-0.4148,-0.4064,-0.3945,-0.3892,-0.3838,-0.3815,-0.381,-0.3808,-0.3807,-0.3815,-0.3797,-0.3823,-0.3822,-0.3822,-0.3822,-0.3821,0,-0.4888,-0.4829,-0.4764,-0.4667,-0.4613,-0.4568,-0.4488,-0.4446,-0.4384,-0.4312,-0.4249,-0.417,-0.41,-0.4013,-0.3939,-0.3913,-0.3885,-0.3897,-0.3895,-0.3884,-0.384,-0.385,-0.3921,-0.3921,-0.3921,-0.3921,-0.3921,-0.3921,-0.4896,-0.4834,-0.4786,-0.4696,-0.4636,-0.4567,-0.4526,-0.447,-0.4412,-0.4326,-0.4269,-0.4214,-0.4137,-0.4059,-0.3996,-0.3972,-0.3949,-0.3968,-0.3937,-0.3896,-0.3886,-0.3878,-0.3886,-0.3965,-0.3965,-0.3985,-0.3985,-0.3986]},{"header":{"parameterUnit":"m.s-1","parameterCategory":1,"la1":30.2991,"la2":30.254,"lo1":-89.0895,"lo2":-89.0444,"dy":0.0017,"dx":0.0017,"nx":28,"ny":28,"refTime":"2023-08-25T21:00:00:Z","depth":0,"parameterNumber":3,"parameterNumberName":"V-component_of_WINDS"},"data":[0,0,0,0,0,0,0,0,0,0,0,0,0,0,0,0,0,0,0,0,0,0,0,0,0,0,0,0,0,0,0,0,0,0,0,0,0,0,0,0,0,0,0,0,0,0,0,0,0,0,0,0,0,0,0,0,0,0,1.0793,1.0795,0,1.0981,1.0983,1.0985,1.0938,1.0934,1.093,1.0927,1.1148,1.1158,1.1167,0,0,0,0,0,0,0,0,0,0,0,0,0,1.0413,1.042,1.0793,1.0795,1.0798,1.0981,1.0983,1.0986,1.0939,1.0934,1.0929,1.0925,1.1145,1.1156,1.1168,0,0,0,0,0,0,0,0,0,0,0,0,0,1.0588,1.0423,1.0793,1.0795,1.0797,1.098,1.0983,1.0987,1.094,1.0934,1.0928,1.0923,1.1142,1.1155,1.1169,1.137,0,0,1.1213,1.1219,0,0,0,0,0,0,0,0,1.0578,1.0602,1.0793,1.0795,1.0798,1.0929,1.093,1.1116,1.0941,1.0887,1.0927,1.092,1.1082,1.1101,1.1149,1.138,1.139,1.1214,1.1222,1.1228,1.1232,0,0,0,0,0,0,0,1.0566,1.0594,1.0868,1.0796,1.0799,1.0794,1.0812,1.0966,1.1015,1.0891,1.0888,1.0909,1.1083,1.1136,1.1154,1.1393,1.1213,1.1226,1.1235,1.124,1.179,1.1796,0,0,0,0,0,0,1.0549,1.0584,1.0862,1.0874,1.0671,1.0805,1.0826,1.0894,1.1013,1.1025,1.0914,1.0906,1.1115,1.1138,1.1162,1.14,1.1228,1.1242,1.125,1.1784,1.1791,1.1798,0,0,0,0,0,0,1.0541,1.0574,1.0855,1.0728,1.0763,1.0817,1.0894,1.09,1.0953,1.1029,1.1041,1.0958,1.1111,1.1142,1.1315,1.1407,1.1248,1.1261,1.1776,1.1786,1.1794,1.1881,0,0,0,0,0,0,1.053,1.0571,1.0644,1.0729,1.077,1.0999,1.09,1.0908,1.0974,1.0966,1.1074,1.1087,1.1109,1.1294,1.1329,1.1424,1.1272,1.1769,1.1781,1.1791,1.187,1.1892,1.191,0,0,0,0,0,1.0516,1.067,1.0648,1.0682,1.0861,1.1005,1.1029,1.1043,1.0982,1.1058,1.1105,1.1083,1.1389,1.1312,1.1351,1.1452,1.1763,1.1777,1.1791,1.1861,1.1888,1.191,0,0,0,0,0,0,1.0608,1.0681,1.0659,1.0842,1.0915,1.0996,1.1094,1.1072,1.1173,1.1162,1.1184,1.1209,1.1383,1.1435,1.1346,1.1648,1.1568,1.1591,1.1609,1.1634,1.1654,1.1641,1.1284,0,0,0,0,0,1.0646,1.0749,1.0811,1.0968,1.1003,1.1041,1.1105,1.1107,1.1189,1.1223,1.1284,1.1371,1.1485,1.1562,1.1673,1.1874,1.1897,1.1962,1.1982,1.1998,1.202,1.2125,1.2154,1.1843,1.1843,1.1843,0,0,1.0735,1.0786,1.0853,1.0986,1.1044,1.1154,1.1069,1.1193,1.1276,1.1246,1.1408,1.1454,1.1553,1.1738,1.1823,1.1787,1.2108,1.2016,1.2028,1.2041,1.2142,1.2171,1.2197,1.1852,1.1851,1.1849,0,0,1.0949,1.0998,1.1129,1.1184,1.1266,1.1288,1.1319,1.1399,1.1425,1.1585,1.1561,1.1665,1.1864,1.1932,1.1993,1.2217,1.22,1.2253,1.2362,1.2463,1.2488,1.251,1.2589,1.2617,1.2273,1.2273,1.2273,0,1.105,1.1207,1.1204,1.1323,1.1383,1.1344,1.148,1.1537,1.1656,1.1701,1.1653,1.1894,1.1959,1.2156,1.2209,1.226,1.2298,1.2245,1.2483,1.2505,1.2526,1.2601,1.2631,1.2279,1.2278,1.2277,1.2277,0,1.1326,1.1435,1.1533,1.1633,1.1703,1.1832,1.1851,1.1924,1.1916,1.1944,1.2106,1.2178,1.2299,1.2346,1.2347,1.2543,1.2516,1.2476,1.2398,1.2561,1.2632,1.2661,1.2287,1.2285,1.2283,1.2282,0,0,1.1616,1.1699,1.1736,1.1776,1.1858,1.1946,1.2071,1.2177,1.2238,1.2319,1.2426,1.2587,1.2546,1.2615,1.2622,1.2711,1.2879,1.2659,1.2662,1.2698,1.3097,1.3127,1.3161,1.2864,1.287,1.2875,1.3088,0,1.1837,1.2046,1.204,1.2239,1.2338,1.2296,1.2405,1.247,1.2496,1.2589,1.2622,1.2734,1.2673,1.2713,1.2798,1.2841,1.2961,1.2825,1.297,1.2975,1.2949,1.3199,1.3234,1.3433,1.3116,1.3121,1.3124,0,1.2126,1.2199,1.2404,1.2459,1.2502,1.2599,1.269,1.2778,1.285,1.2862,1.293,1.292,1.305,1.2961,1.3142,1.3049,1.3107,1.3136,1.3144,1.3162,1.3063,1.3225,1.3497,1.3527,1.3169,1.3165,1.3162,0,1.2314,1.2466,1.2605,1.2642,1.2713,1.278,1.2815,1.2878,1.2939,1.3022,1.3061,1.3162,1.3219,1.3298,1.3315,1.3249,1.3495,1.3409,1.3513,1.3513,1.3573,1.357,1.3859,1.3606,1.3605,1.3605,1.3604,0,1.2564,1.2691,1.2689,1.2776,1.2915,1.2907,1.3048,1.3077,1.3132,1.3226,1.3199,1.329,1.3305,1.3401,1.3416,1.3561,1.3588,1.3605,1.3608,1.3608,1.3606,1.3651,1.3638,1.3613,1.3611,1.3609,1.3608,0,1.2802,1.2805,1.2954,1.3001,1.3016,1.3117,1.3161,1.3245,1.3261,1.3381,1.3409,1.3441,1.355,1.3571,1.3706,1.3715,1.3887,1.3877,1.3861,1.386,1.3962,1.3953,1.4294,1.4337,1.4054,1.4056,1.4059,0,1.2962,1.3056,1.3108,1.3162,1.3195,1.3288,1.3344,1.3338,1.34,1.348,1.3555,1.3658,1.3741,1.3918,1.3957,1.4057,1.405,1.4161,1.4066,1.406,1.4051,1.4045,1.4054,1.4182,1.4185,1.4188,1.419,0,1.3245,1.3238,1.3316,1.3392,1.3457,1.352,1.3581,1.3629,1.3631,1.3703,1.3806,1.3869,1.3995,1.41,1.4196,1.4238,1.4216,1.4217,1.4246,1.425,1.4236,1.4243,1.3912,1.4212,1.421,1.4208,1.4207,1.4206,1.345,1.3527,1.3572,1.3658,1.3698,1.3751,1.3829,1.3849,1.3932,1.4028,1.402,1.4135,1.4197,1.4322,1.4369,1.4461,1.4427,1.4471,1.4482,1.4493,1.4501,1.4216,1.448,1.4479,1.4479,1.4478,1.4478,0,1.3731,1.3753,1.3831,1.3907,1.3974,1.3931,1.3992,1.4054,1.4151,1.4205,1.4281,1.4399,1.4495,1.4536,1.4632,1.4698,1.4689,1.4723,1.4721,1.473,1.4528,1.4492,1.4728,1.4728,1.4728,1.4728,1.4728,1.4727,1.3885,1.4011,1.4008,1.4155,1.418,1.4282,1.4319,1.4369,1.441,1.4538,1.4613,1.4634,1.4683,1.478,1.4867,1.4876,1.4914,1.4953,1.4958,1.477,1.4745,1.4721,1.4687,1.4961,1.4961,1.5153,1.5154,1.5156]}]]